This is the latest recevied weather packets stored in our database for station/object KO6HRZ. If no packets are shown the sender has not sent any weather packets the latest 10 day(s).
| Time | Temp. | Humidity | Pressure | Rain* | Wind** | Luminosity | Snow |
|---|---|---|---|---|---|---|---|
| 1788025643 | 25.56° C | 55% | 1013.4 hPa | 0 mm | - | 556 W/m² | - |
| 1788025044 | 25° C | 57% | 1013.3 hPa | 0 mm | - | 533 W/m² | - |
| 1788024440 | 24.44° C | 57% | 1013.2 hPa | 0 mm | - | 509 W/m² | - |
| 1788023836 | 24.44° C | 58% | 1013.3 hPa | 0 mm | - | 479 W/m² | - |
| 1788023232 | 23.33° C | 60% | 1013.4 hPa | 0 mm | - | 444 W/m² | - |
| 1788022629 | 22.78° C | 62% | 1013.1 hPa | 0 mm | - | 408 W/m² | - |
| 1788022029 | 22.22° C | 63% | 1012.9 hPa | 0 mm | - | 375 W/m² | - |
| 1788021428 | 21.67° C | 65% | 1012.8 hPa | 0 mm | - | 341 W/m² | - |
| 1788020823 | 21.11° C | 66% | 1013 hPa | 0 mm | - | 302 W/m² | - |
| 1788020220 | 20.56° C | 68% | 1012.8 hPa | 0 mm | - | 272 W/m² | - |
| 1788019616 | 20.56° C | 69% | 1012.9 hPa | 0 mm | - | 245 W/m² | - |
| 1788019013 | 19.44° C | 73% | 1012.9 hPa | 0 mm | - | 227 W/m² | - |
| 1788018414 | 18.89° C | 74% | 1012.7 hPa | 0 mm | - | 197 W/m² | - |
| 1788017811 | 17.78° C | 78% | 1012.7 hPa | 0 mm | - | 173 W/m² | - |
| 1788017210 | 16.67° C | 81% | 1012.8 hPa | 0 mm | - | 151 W/m² | - |
| 1788016608 | 16.67° C | 82% | 1012.7 hPa | 0 mm | - | 42 W/m² | - |
| 1788016008 | 16.11° C | 83% | 1012.6 hPa | 0 mm | - | 40 W/m² | - |
| 1788015403 | 15.56° C | 84% | 1012.6 hPa | 0 mm | - | 37 W/m² | - |
| 1788014801 | 15.56° C | 84% | 1012.5 hPa | 0 mm | - | 34 W/m² | - |
| 1788014198 | 15.56° C | 84% | 1012.3 hPa | 0 mm | - | 31 W/m² | - |
| 1788013597 | 15° C | 83% | 1012.2 hPa | 0 mm | - | 28 W/m² | - |
| 1788012991 | 15° C | 83% | 1012.1 hPa | 0 mm | - | 25 W/m² | - |
| 1788012387 | 15° C | 83% | 1012.1 hPa | 0 mm | - | 21 W/m² | - |
| 1788011787 | 15° C | 82% | 1011.8 hPa | 0 mm | - | 16 W/m² | - |
| 1788011181 | 15° C | 82% | 1012 hPa | 0 mm | - | 10 W/m² | - |
* Rain latest hour (hover to see other rain measurements)
** Current wind speed in m/s (hover to see current wind gust speed)